Simultaneous Nadir Overpasses (SNOs) Predictions

Prediction of SNOs between LANDSAT-8 and METOP-B Satellite Orbit:

Table of predicted SNOs for the next 14.0 days since TLE Epoch: 11/7/2015
Index Date (LANDSAT-8) Time (LANDSAT-8) Lat,Lon (LANDSAT-8) SZA (LANDSAT-8 ) Date (METOP-B) Time (METOP-B) Lat,Lon (METOP-B) SZA (METOP-B ) Distance(km) Time Diff (sec)
1 11/09/2015 10:12:11 81.16, 67.50 100.40 11/09/2015 10:11:41 81.16, 67.35 100.37 2.68 30
2 11/09/2015 11:01:37 -81.18,-124.57 79.55 11/09/2015 11:02:20 -81.18,-124.70 79.54 2.14 43
3 11/12/2015 05:46:25 81.15, 133.81 101.16 11/12/2015 05:46:00 81.16, 133.83 101.15 0.72 25
4 11/12/2015 06:35:50 -81.20, -57.87 78.74 11/12/2015 06:36:38 -81.19, -57.80 78.71 1.33 48
5 11/15/2015 01:20:39 81.16,-159.62 101.91 11/15/2015 01:20:20 81.16,-159.73 101.89 1.93 19
6 11/15/2015 02:10:05 -81.18, 8.36 78.04 11/15/2015 02:10:59 -81.18, 8.30 78.02 1.01 54
7 11/17/2015 20:54:53 81.16, -93.14 102.60 11/17/2015 20:54:40 81.16, -93.33 102.57 3.30 13
8 11/17/2015 21:44:19 -81.19, 74.86 77.34 11/17/2015 21:45:19 -81.18, 74.73 77.33 2.12 60
9 11/20/2015 16:29:06 81.18, -26.40 103.29 11/20/2015 16:28:58 81.18, -26.22 103.30 3.04 8




NCC Satellite Simultaneous Nadir Overpasses (SNOs) Prediction Service
